sat.trackr.live / text

‹ back to catalog

STARLINK-1506

NORAD 45747 · 2020-038T

PAYLOAD ACTIVE UNKNOWN

§ Identity

Operator
Country
US
Launch date
2020-06-13
Launch site
AFETR
Launch vehicle
Mass (kg)
RCS (m²)

Purposes: comms

External: N2YO · Heavens-Above · Gunter

§ Orbital elements

Epoch: 2026-05-24T13:44:32.739360Z

Period
94.24 min
Inclination
53.0765°
Eccentricity
0.0003237
Mean motion
15.28017346 rev/d
Perigee alt
479.5 km
Apogee alt
484.0 km
Semi-major
6,859.9 km
B*
2.0224e-4
RAAN
210.8089°
Arg perigee
119.6025°
Mean anomaly
240.5297°
Rev number
32,828

§ Raw data

STARLINK-15061 45747U 20038T   26144.57260115  .00005254  00000+0  20224-3 0  99922 45747  53.0765 210.8089 0003237 119.6025 240.5297 15.28017346328281

JSON: /api/v1/satellites/45747 · /tle

For live sub-satellite position, see the globe view (requires WebGL).

§ Visibility from observer

Set your observer location to see the next 7 days of passes ≥ 10°. The values pass through the URL so the page stays shareable.

No JS? Fill the form by hand. The geolocation button needs JavaScript.